DW6494 Weather Reports


Display with metric or nautical units.
time (UTC)temp
F
wind
direction
speed
MPH
gust
MPH
rain 1hr
in
rain 24hr
in
rain mn
in
humidity
%
barometer
mb
20210411010747 74 0 0.0 0.0 0.00 0.00 0.00 13 1010.8
20210411010253 74 0 0.0 0.0 0.00 0.00 0.00 13 1010.5
20210411010040 73 0 0.0 0.0 0.00 0.00 0.00 13 1010.5
20210411005027 74 0 0.0 0.0 0.00 0.00 0.00 14 1010.8
20210411004232 74 0 0.0 0.0 0.00 0.00 0.00 13 1010.8
20210411003708 71 0 0.0 0.0 0.00 0.00 0.00 15 1010.8
20210411003229 71 0 0.0 0.0 0.00 0.00 0.00 15 1010.8
20210411002646 72 0 0.0 0.0 0.00 0.00 0.00 13 1010.8
20210411002036 71 0 0.0 0.0 0.00 0.00 0.00 16 1010.8
20210411001535 70 0 0.0 0.0 0.00 0.00 0.00 16 1010.8
20210411000922 69 0 0.0 0.0 0.00 0.00 0.00 16 1010.8
20210411000322 68 0 0.0 0.0 0.00 0.00 0.00 16 1010.8
20210410235744 68 0 0.0 0.0 0.00 0.00 0.00 16 1010.8
20210410235243 68 0 0.0 0.0 0.00 0.00 0.00 16 1010.8
20210410234729 69 0 0.0 0.0 0.00 0.00 0.00 16 1010.8
20210410234255 69 0 0.0 0.0 0.00 0.00 0.00 16 1010.8
20210410233625 70 0 0.0 0.0 0.00 0.00 0.00 16 1011.2
20210410233034 70 0 0.0 0.0 0.00 0.00 0.00 16 1011.2
20210410232352 70 0 0.0 0.0 0.00 0.00 0.00 16 1010.8
20210410231851 69 0 0.0 0.0 0.00 0.00 0.00 16 1010.8
20210410231410 69 0 0.0 0.0 0.00 0.00 0.00 16 1010.8
20210410230751 69 0 0.0 0.0 0.00 0.00 0.00 16 1011.2
20210410230246 69 0 0.0 0.0 0.00 0.00 0.00 16 1011.2
20210410225807 69 0 0.0 0.0 0.00 0.00 0.00 16 1011.2
20210410225149 70 0 0.0 0.0 0.00 0.00 0.00 16 1011.2
20210410224428 70 0 0.0 0.0 0.00 0.00 0.00 15 1011.2
20210410223856 71 0 0.0 0.0 0.00 0.00 0.00 15 1011.5
20210410223223 69 0 0.0 0.0 0.00 0.00 0.00 17 1011.5
20210410222939 68 0 0.0 0.0 0.00 0.00 0.00 16 1011.5
20210410222646 70 0 0.0 0.0 0.00 0.00 0.00 16 1011.5
20210410221619 69 0 0.0 0.0 0.00 0.00 0.00 17 1011.5
20210410221044 70 0 0.0 0.0 0.00 0.00 0.00 17 1011.5
20210410220438 70 0 0.0 0.0 0.00 0.00 0.00 16 1011.5
20210410220018 69 0 0.0 0.0 0.00 0.00 0.00 17 1011.5
20210410215909 69 0 0.0 0.0 0.00 0.00 0.00 16 1011.5
20210410215141 69 0 0.0 0.0 0.00 0.00 0.00 16 1011.5
20210410214325 69 0 0.0 0.0 0.00 0.00 0.00 15 1011.5
20210410213834 69 0 0.0 0.0 0.00 0.00 0.00 15 1011.5
20210410213250 69 0 0.0 0.0 0.00 0.00 0.00 17 1011.9
20210410212930 68 0 0.0 0.0 0.00 0.00 0.00 16 1011.9
20210410212442 67 0 0.0 0.0 0.00 0.00 0.00 16 1011.9
20210410211643 67 0 0.0 0.0 0.00 0.00 0.00 17 1012.2
20210410211145 67 0 0.0 0.0 0.00 0.00 0.00 17 1012.2
20210410210627 67 0 0.0 0.0 0.00 0.00 0.00 17 1012.2
20210410210045 67 0 0.0 0.0 0.00 0.00 0.00 17 1012.5
20210410205456 66 0 0.0 0.0 0.00 0.00 0.00 17 1012.5
20210410204450 66 0 0.0 0.0 0.00 0.00 0.00 16 1012.5
20210410203902 66 0 0.0 0.0 0.00 0.00 0.00 17 1012.9
20210410203053 66 0 0.0 0.0 0.00 0.00 0.00 19 1013.2
20210410201655 66 0 0.0 0.0 0.00 0.00 0.00 17 1013.2
20210410201116 66 0 0.0 0.0 0.00 0.00 0.00 18 1013.2
20210410200619 65 0 0.0 0.0 0.00 0.00 0.00 19 1013.5
20210410200208 65 0 0.0 0.0 0.00 0.00 0.00 18 1013.5
20210410195446 64 0 0.0 0.0 0.00 0.00 0.00 18 1013.5
20210410194400 65 0 0.0 0.0 0.00 0.00 0.00 18 1013.5
20210410193826 64 0 0.0 0.0 0.00 0.00 0.00 18 1013.5
20210410193324 64 0 0.0 0.0 0.00 0.00 0.00 19 1013.9
20210410192915 64 0 0.0 0.0 0.00 0.00 0.00 19 1013.9
20210410192800 64 0 0.0 0.0 0.00 0.00 0.00 19 1014.2
20210410191920 64 0 0.0 0.0 0.00 0.00 0.00 19 1014.2
20210410191339 64 0 0.0 0.0 0.00 0.00 0.00 21 1014.2
20210410190749 64 0 0.0 0.0 0.00 0.00 0.00 19 1014.2
20210410190434 63 0 0.0 0.0 0.00 0.00 0.00 22 1014.6
20210410185939 63 0 0.0 0.0 0.00 0.00 0.00 22 1014.6
20210410185428 64 0 0.0 0.0 0.00 0.00 0.00 22 1014.6
20210410184530 64 0 0.0 0.0 0.00 0.00 0.00 22 1014.9
20210410183931 63 0 0.0 0.0 0.00 0.00 0.00 22 1014.9
20210410183324 63 0 0.0 0.0 0.00 0.00 0.00 24 1014.9
20210410182933 63 0 0.0 0.0 0.00 0.00 0.00 22 1014.9
20210410182448 63 0 0.0 0.0 0.00 0.00 0.00 22 1014.9
20210410181650 62 0 0.0 0.0 0.00 0.00 0.00 23 1015.2
20210410181144 61 0 0.0 0.0 0.00 0.00 0.00 22 1015.2
20210410180554 61 0 0.0 0.0 0.00 0.00 0.00 22 1015.2
20210410180229 61 0 0.0 0.0 0.00 0.00 0.00 22 1015.2
20210410175841 61 0 0.0 0.0 0.00 0.00 0.00 22 1015.2
20210410175050 61 0 0.0 0.0 0.00 0.00 0.00 22 1015.2
20210410174400 61 0 0.0 0.0 0.00 0.00 0.00 25 1015.2
20210410173620 61 0 0.0 0.0 0.00 0.00 0.00 23 1015.2
20210410173056 60 0 0.0 0.0 0.00 0.00 0.00 24 1015.2
20210410172834 59 0 0.0 0.0 0.00 0.00 0.00 23 1015.6
20210410172418 58 0 0.0 0.0 0.00 0.00 0.00 24 1015.6
20210410171259 58 0 0.0 0.0 0.00 0.00 0.00 25 1015.6
20210410170653 57 0 0.0 0.0 0.00 0.00 0.00 25 1015.6
20210410170248 57 0 0.0 0.0 0.00 0.00 0.00 27 1015.6
20210410170032 57 0 0.0 0.0 0.00 0.00 0.00 28 1015.6
20210410165648 57 0 0.0 0.0 0.00 0.00 0.00 25 1015.6
20210410164545 57 0 0.0 0.0 0.00 0.00 0.00 27 1015.6
20210410164044 56 0 0.0 0.0 0.00 0.00 0.00 28 1015.6
20210410163544 56 0 0.0 0.0 0.00 0.00 0.00 27 1015.6
20210410163125 56 0 0.0 0.0 0.00 0.00 0.00 27 1015.6
20210410162859 56 0 0.0 0.0 0.00 0.00 0.00 27 1015.6
20210410162318 56 0 0.0 0.0 0.00 0.00 0.00 28 1015.6
20210410161524 55 0 0.0 0.0 0.00 0.00 0.00 29 1015.9
20210410161021 55 0 0.0 0.0 0.00 0.00 0.00 27 1015.9
20210410160403 55 0 0.0 0.0 0.00 0.00 0.00 27 1015.9
20210410160105 54 0 0.0 0.0 0.00 0.00 0.00 28 1015.9
20210410155743 54 0 0.0 0.0 0.00 0.00 0.00 29 1015.9
20210410154730 53 0 0.0 0.0 0.00 0.00 0.00 28 1015.9
20210410154222 53 0 0.0 0.0 0.00 0.00 0.00 29 1015.9
20210410153721 52 0 0.0 0.0 0.00 0.00 0.00 29 1015.9
20210410153220 52 0 0.0 0.0 0.00 0.00 0.00 30 1015.9
20210410152843 52 0 0.0 0.0 0.00 0.00 0.00 29 1015.9
20210410152537 52 0 0.0 0.0 0.00 0.00 0.00 31 1015.9
20210410151727 52 0 0.0 0.0 0.00 0.00 0.00 33 1016.3
20210410151031 51 0 0.0 0.0 0.00 0.00 0.00 36 1016.3
20210410150625 51 0 0.0 0.0 0.00 0.00 0.00 36 1016.3
20210410150252 51 0 0.0 0.0 0.00 0.00 0.00 35 1015.9
20210410150041 50 0 0.0 0.0 0.00 0.00 0.00 38 1015.9
20210410144709 49 0 0.0 0.0 0.00 0.00 0.00 40 1015.9
20210410144110 49 0 0.0 0.0 0.00 0.00 0.00 40 1015.9
20210410143441 49 0 0.0 0.0 0.00 0.00 0.00 40 1015.9
20210410142940 48 0 0.0 0.0 0.00 0.00 0.00 41 1015.9
20210410142822 48 0 0.0 0.0 0.00 0.00 0.00 41 1016.3
20210410142112 48 0 0.0 0.0 0.00 0.00 0.00 41 1016.3
20210410141437 47 0 0.0 0.0 0.00 0.00 0.00 43 1015.9
20210410140905 46 0 0.0 0.0 0.00 0.00 0.00 42 1015.9
20210410140449 45 0 0.0 0.0 0.00 0.00 0.00 43 1015.9
20210410140217 44 0 0.0 0.0 0.00 0.00 0.00 44 1015.9
20210410135858 43 0 0.0 0.0 0.00 0.00 0.00 45 1015.9
20210410134907 42 0 0.0 0.0 0.00 0.00 0.00 46 1015.9
20210410134233 40 0 0.0 0.0 0.00 0.00 0.00 48 1015.9
20210410133638 39 0 0.0 0.0 0.00 0.00 0.00 49 1015.9
20210410133149 37 0 0.0 0.0 0.00 0.00 0.00 51 1015.9
20210410132634 35 0 0.0 0.0 0.00 0.00 0.00 53 1015.9
20210410131550 36 0 0.0 0.0 0.00 0.00 0.00 51 1015.9
20210410131054 36 0 0.0 0.0 0.00 0.00 0.00 51 1015.9
20210410130540 35 0 0.0 0.0 0.00 0.00 0.00 52 1015.9
20210410130130 35 0 0.0 0.0 0.00 0.00 0.00 51 1015.6
20210410125825 35 0 0.0 0.0 0.00 0.00 0.00 49 1015.6
20210410124541 35 0 0.0 0.0 0.00 0.00 0.00 49 1015.2
20210410124115 34 0 0.0 0.0 0.00 0.00 0.00 50 1015.2
20210410123541 33 0 0.0 0.0 0.00 0.00 0.00 51 1015.2
20210410123140 33 0 0.0 0.0 0.00 0.00 0.00 51 1015.2
20210410121825 34 0 0.0 0.0 0.00 0.00 0.00 51 1015.2
20210410121147 34 0 0.0 0.0 0.00 0.00 0.00 52 1015.2
20210410120649 34 0 0.0 0.0 0.00 0.00 0.00 52 1015.2
20210410120251 34 0 0.0 0.0 0.00 0.00 0.00 52 1015.2
20210410120035 34 0 0.0 0.0 0.00 0.00 0.00 53 1015.6
20210410115454 34 0 0.0 0.0 0.00 0.00 0.00 51 1015.2
20210410114511 34 0 0.0 0.0 0.00 0.00 0.00 51 1015.6
20210410113935 34 0 0.0 0.0 0.00 0.00 0.00 52 1015.6
20210410113305 34 0 0.0 0.0 0.00 0.00 0.00 52 1015.6
20210410112845 34 0 0.0 0.0 0.00 0.00 0.00 52 1015.6
20210410112728 34 0 0.0 0.0 0.00 0.00 0.00 49 1015.6
20210410111912 35 0 0.0 0.0 0.00 0.00 0.00 50 1015.6
20210410111252 36 0 0.0 0.0 0.00 0.00 0.00 47 1015.6
20210410110757 36 0 0.0 0.0 0.00 0.00 0.00 45 1015.6
20210410110252 37 0 0.0 0.0 0.00 0.00 0.00 46 1015.9
20210410105912 38 0 0.0 0.0 0.00 0.00 0.00 45 1015.9
20210410105736 38 0 0.0 0.0 0.00 0.00 0.00 45 1015.9
20210410104839 38 0 0.0 0.0 0.00 0.00 0.00 45 1015.9
20210410104247 39 0 0.0 0.0 0.00 0.00 0.00 45 1015.9
20210410103749 39 0 0.0 0.0 0.00 0.00 0.00 45 1016.3
20210410103244 38 0 0.0 0.0 0.00 0.00 0.00 45 1016.3
20210410102858 38 0 0.0 0.0 0.00 0.00 0.00 45 1016.3
20210410102657 38 0 0.0 0.0 0.00 0.00 0.00 47 1016.3
20210410101636 37 0 0.0 0.0 0.00 0.00 0.00 48 1016.3
20210410101135 37 0 0.0 0.0 0.00 0.00 0.00 49 1016.3
20210410100635 37 0 0.0 0.0 0.00 0.00 0.00 48 1016.3
20210410100115 36 0 0.0 0.0 0.00 0.00 0.00 46 1016.3
20210410095927 36 0 0.0 0.0 0.00 0.00 0.00 46 1016.3
20210410095358 36 0 0.0 0.0 0.00 0.00 0.00 45 1016.3
20210410094527 37 0 0.0 0.0 0.00 0.00 0.00 45 1016.3
20210410094001 37 0 0.0 0.0 0.00 0.00 0.00 46 1016.6
20210410093452 37 0 0.0 0.0 0.00 0.00 0.00 48 1016.3
20210410092846 38 0 0.0 0.0 0.00 0.00 0.00 45 1016.3
20210410092538 38 0 0.0 0.0 0.00 0.00 0.00 45 1016.6
20210410091906 39 0 0.0 0.0 0.00 0.00 0.00 44 1016.3
20210410091316 40 0 0.0 0.0 0.00 0.00 0.00 44 1016.6
20210410090816 40 0 0.0 0.0 0.00 0.00 0.00 44 1016.6
20210410090309 40 0 0.0 0.0 0.00 0.00 0.00 44 1016.6
20210410085855 40 0 0.0 0.0 0.00 0.00 0.00 43 1016.6
20210410085650 40 0 0.0 0.0 0.00 0.00 0.00 43 1016.6
20210410084845 40 0 0.0 0.0 0.00 0.00 0.00 41 1016.6
20210410084306 40 0 0.0 0.0 0.00 0.00 0.00 41 1016.9
20210410083809 40 0 0.0 0.0 0.00 0.00 0.00 40 1016.9
20210410083306 40 0 0.0 0.0 0.00 0.00 0.00 40 1016.6
20210410082806 38 0 0.0 0.0 0.00 0.00 0.00 42 1016.9
20210410082318 37 0 0.0 0.0 0.00 0.00 0.00 43 1016.9
20210410081659 37 0 0.0 0.0 0.00 0.00 0.00 43 1016.6
20210410081157 38 0 0.0 0.0 0.00 0.00 0.00 43 1016.9
20210410080655 38 0 0.0 0.0 0.00 0.00 0.00 41 1016.9
20210410080110 39 0 0.0 0.0 0.00 0.00 0.00 41 1016.9
20210410075845 39 0 0.0 0.0 0.00 0.00 0.00 37 1016.6
20210410075238 40 0 0.0 0.0 0.00 0.00 0.00 37 1016.6
20210410074444 41 0 0.0 0.0 0.00 0.00 0.00 36 1016.6
20210410073942 41 0 0.0 0.0 0.00 0.00 0.00 36 1016.6
20210410073441 42 0 0.0 0.0 0.00 0.00 0.00 35 1016.9
20210410072908 42 0 0.0 0.0 0.00 0.00 0.00 35 1016.6
20210410072649 42 0 0.0 0.0 0.00 0.00 0.00 35 1016.9
20210410071902 42 0 0.0 0.0 0.00 0.00 0.00 35 1016.6
20210410071333 42 0 0.0 0.0 0.00 0.00 0.00 35 1016.9
20210410070833 42 0 0.0 0.0 0.00 0.00 0.00 36 1016.9
20210410070300 42 0 0.0 0.0 0.00 0.00 0.00 35 1016.9
20210410065930 42 0 0.0 0.0 0.00 0.00 0.00 36 1016.9
20210410065747 42 0 0.0 0.0 0.00 0.00 0.00 37 1016.9
20210410064653 42 0 0.0 0.0 0.00 0.00 0.00 36 1016.9
20210410064221 42 0 0.0 0.0 0.00 0.00 0.00 36 1016.9
20210410063707 42 0 0.0 0.0 0.00 0.00 0.00 36 1016.9
20210410063424 42 0 0.0 0.0 0.00 0.00 0.00 35 1017.3
20210410063045 42 0 0.0 0.0 0.00 0.00 0.00 35 1016.9
20210410062350 42 0 0.0 0.0 0.00 0.00 0.00 34 1016.9
20210410061414 42 0 0.0 0.0 0.00 0.00 0.00 34 1016.9
20210410060832 43 0 0.0 0.0 0.00 0.00 0.00 34 1017.3
20210410060352 43 0 0.0 0.0 0.00 0.00 0.00 33 1017.3
20210410060111 43 0 0.0 0.0 0.00 0.00 0.00 33 1017.3
20210410055822 43 0 0.0 0.0 0.00 0.00 0.00 33 1017.3
20210410054535 44 0 0.0 0.0 0.00 0.00 0.00 33 1017.3
20210410053945 44 0 0.0 0.0 0.00 0.00 0.00 33 1017.3
20210410053242 44 0 0.0 0.0 0.00 0.00 0.00 33 1017.3
20210410052948 43 0 0.0 0.0 0.00 0.00 0.00 33 1017.3
20210410052744 43 0 0.0 0.0 0.00 0.00 0.00 33 1017.3
20210410051701 42 0 0.0 0.0 0.00 0.00 0.00 35 1017.3
20210410051221 41 0 0.0 0.0 0.00 0.00 0.00 35 1017.3
20210410050625 40 0 0.0 0.0 0.00 0.00 0.00 34 1017.3
20210410050151 40 0 0.0 0.0 0.00 0.00 0.00 32 1017.3
20210410045925 40 0 0.0 0.0 0.00 0.00 0.00 33 1017.6
20210410045346 40 0 0.0 0.0 0.00 0.00 0.00 32 1017.6
20210410044531 40 0 0.0 0.0 0.00 0.00 0.00 33 1017.6
20210410044024 41 0 0.0 0.0 0.00 0.00 0.00 31 1017.6
20210410043516 41 0 0.0 0.0 0.00 0.00 0.00 31 1017.6
20210410042843 41 0 0.0 0.0 0.00 0.00 0.00 30 1017.6
20210410042717 41 0 0.0 0.0 0.00 0.00 0.00 31 1017.6
20210410041818 41 0 0.0 0.0 0.00 0.00 0.00 29 1017.6
20210410041301 42 0 0.0 0.0 0.00 0.00 0.00 29 1017.6
20210410040804 42 0 0.0 0.0 0.00 0.00 0.00 29 1017.6
20210410040259 42 0 0.0 0.0 0.00 0.00 0.00 29 1017.9
20210410040035 43 0 0.0 0.0 0.00 0.00 0.00 29 1017.9
20210410035837 43 0 0.0 0.0 0.00 0.00 0.00 29 1017.9
20210410034731 44 0 0.0 0.0 0.00 0.00 0.00 29 1018.3
20210410034152 44 0 0.0 0.0 0.00 0.00 0.00 29 1017.9
20210410033651 45 0 0.0 0.0 0.00 0.00 0.00 26 1018.3
20210410033154 45 0 0.0 0.0 0.00 0.00 0.00 24 1018.3
20210410032931 45 0 0.0 0.0 0.00 0.00 0.00 24 1018.3
20210410032333 46 0 0.0 0.0 0.00 0.00 0.00 24 1017.9
20210410031440 46 0 0.0 0.0 0.00 0.00 0.00 23 1017.9
20210410031108 47 0 0.0 0.0 0.00 0.00 0.00 22 1017.9
20210410030718 47 0 0.0 0.0 0.00 0.00 0.00 21 1017.9
20210410030144 48 0 0.0 0.0 0.00 0.00 0.00 21 1017.9
20210410025916 48 0 0.0 0.0 0.00 0.00 0.00 21 1017.9
20210410024652 49 0 0.0 0.0 0.00 0.00 0.00 20 1017.9
20210410024117 49 0 0.0 0.0 0.00 0.00 0.00 20 1017.6
20210410023544 50 0 0.0 0.0 0.00 0.00 0.00 18 1017.6
20210410023034 50 0 0.0 0.0 0.00 0.00 0.00 18 1017.6
20210410022722 50 0 0.0 0.0 0.00 0.00 0.00 18 1017.6
20210410021911 51 0 0.0 0.0 0.00 0.00 0.00 17 1017.6
20210410021307 51 0 0.0 0.0 0.00 0.00 0.00 17 1017.6
20210410020800 51 0 0.0 0.0 0.00 0.00 0.00 17 1017.6
20210410020301 51 0 0.0 0.0 0.00 0.00 0.00 18 1017.6
20210410015924 52 0 0.0 0.0 0.00 0.00 0.00 18 1017.6
20210410015559 52 0 0.0 0.0 0.00 0.00 0.00 18 1017.6
20210410014524 53 0 0.0 0.0 0.00 0.00 0.00 18 1017.6
20210410013940 54 0 0.0 0.0 0.00 0.00 0.00 17 1017.6
20210410013439 56 0 0.0 0.0 0.00 0.00 0.00 17 1017.6
20210410012954 56 0 0.0 0.0 0.00 0.00 0.00 17 1017.6
20210410012745 57 0 0.0 0.0 0.00 0.00 0.00 17 1017.6
20210410011953 58 0 0.0 0.0 0.00 0.00 0.00 17 1017.6
20210410011333 58 0 0.0 0.0 0.00 0.00 0.00 16 1017.6